Total_Precipitation_Accumulation
0.07 0.04 0.02 0.01 0.00 0.00 0.00 0.00 0.00 0.00 0.00 0.00 0.00 0.00 0.00 0.00 0.01 0.01 0.01 0.01 0.01 0.00 0.00 0.00 0.01 0.02 0.01 0.02 0.01 0.00 0.00 0.00 0.00 0.00 0.00 0.00 0.00 0.00 0.01 0.00 0.01 0.02 0.01 0.01 0.02 0.02 0.01 0.01 0.01 0.01 0.01 0.00 0.00 0.00 0.00 0.00 0.00 0.00 0.00 0.01 0.00 0.01 0.00 0.01 0.01 0.01 0.01 0.00 0.00 0.00 0.01 0.01 0.00 0.00 0.00 0.00 0.00 0.00 0.00 0.00 0.00 0.00 0.00 0.01 0.00
0.06 0.03 0.01 0.01 0.00 0.00 0.00 0.00 0.00 0.00 0.00 0.00 0.00 0.00 0.00 0.00 0.01 0.01 0.00 0.00 0.00 0.00 0.00 0.01 0.01 0.01 0.01 0.00 0.00 0.00 0.00 0.00 0.00 0.00 0.00 0.00 0.02 0.01 0.00 0.01 0.01 0.01 0.02 0.03 0.01 0.01 0.03 0.01 0.00 0.01 0.00 0.00 0.00 0.00 0.01 0.01 0.01 0.02 0.02 0.00 0.00 0.00 0.00 0.00 0.00 0.00 0.00 0.00 0.00 0.00 0.00 0.00 0.00 0.00 0.00 0.00 0.00 0.00 0.00 0.00 0.00 0.00 0.00 0.00 0.01
0.09 0.04 0.02 0.01 0.01 0.00 0.00 0.00 0.00 0.00 0.00 0.00 0.00 0.00 0.00 0.00 0.00 0.00 0.00 0.00 0.00 0.00 0.00 0.01 0.01 0.01 0.00 0.00 0.00 0.00 0.00 0.00 0.00 0.00 0.00 0.00 0.00 0.01 0.01 0.02 0.02 0.02 0.02 0.02 0.03 0.01 0.03 0.01 0.00 0.01 0.00 0.00 0.00 0.00 0.00 0.00 0.00 0.00 0.00 0.00 0.00 0.00 0.00 0.00 0.00 0.00 0.00 0.00 0.00 0.00 0.00 0.00 0.00 0.00 0.00 0.00 0.00 0.00 0.00 0.00 0.00 0.00 0.00 0.00 0.00
0.12 0.06 0.04 0.01 0.02 0.00 0.00 0.01 0.00 0.00 0.00 0.00 0.00 0.00 0.00 0.00 0.00 0.00 0.00 0.00 0.00 0.00 0.00 0.00 0.00 0.00 0.00 0.00 0.00 0.00 0.00 0.00 0.00 0.00 0.00 0.00 0.00 0.01 0.01 0.02 0.04 0.03 0.03 0.03 0.02 0.02 0.03 0.02 0.01 0.00 0.00 0.00 0.00 0.00 0.00 0.00 0.01 0.00 0.00 0.00 0.00 0.00 0.00 0.00 0.00 0.00 0.00 0.00 0.00 0.00 0.00 0.00 0.00 0.00 0.00 0.00 0.00 0.00 0.00 0.00 0.00 0.00 0.00 0.00 0.00
0.18 0.06 0.02 0.01 0.02 0.01 0.01 0.01 0.00 0.00 0.00 0.00 0.00 0.00 0.00 0.00 0.00 0.00 0.00 0.00 0.00 0.00 0.00 0.00 0.00 0.00 0.00 0.00 0.00 0.00 0.00 0.00 0.00 0.01 0.01 0.00 0.01 0.03 0.02 0.04 0.08 0.05 0.05 0.04 0.02 0.03 0.02 0.01 0.01 0.00 0.00 0.00 0.00 0.00 0.00 0.00 0.00 0.00 0.00 0.00 0.00 0.00 0.00 0.00 0.00 0.00 0.00 0.00 0.00 0.00 0.00 0.00 0.00 0.00 0.00 0.01 0.00 0.00 0.00 0.00 0.00 0.00 0.00 0.00 0.00
0.21 0.10 0.07 0.04 0.02 0.02 0.02 0.01 0.01 0.01 0.00 0.00 0.00 0.00 0.00 0.00 0.00 0.00 0.00 0.00 0.00 0.00 0.00 0.00 0.00 0.00 0.00 0.00 0.00 0.00 0.00 0.00 0.00 0.00 0.00 0.01 0.01 0.03 0.03 0.04 0.06 0.04 0.03 0.03 0.02 0.03 0.01 0.01 0.01 0.00 0.00 0.01 0.01 0.00 0.01 0.02 0.00 0.00 0.00 0.00 0.00 0.00 0.00 0.00 0.00 0.00 0.00 0.00 0.00 0.00 0.00 0.00 0.00 0.01 0.00 0.00 0.00 0.00 0.01 0.00 0.00 0.00 0.00 0.00 0.00
0.52 0.18 0.11 0.03 0.03 0.02 0.01 0.02 0.02 0.01 0.00 0.01 0.01 0.00 0.00 0.00 0.00 0.00 0.00 0.00 0.00 0.00 0.00 0.00 0.00 0.00 0.00 0.00 0.00 0.01 0.01 0.00 0.00 0.00 0.00 0.00 0.01 0.02 0.05 0.05 0.03 0.03 0.02 0.02 0.03 0.05 0.03 0.01 0.00 0.01 0.00 0.01 0.01 0.01 0.01 0.01 0.01 0.01 0.00 0.00 0.00 0.00 0.00 0.00 0.00 0.00 0.00 0.00 0.00 0.00 0.00 0.00 0.00 0.00 0.00 0.00 0.00 0.00 0.00 0.00 0.00 0.00 0.00 0.00 0.00
0.15 0.11 0.16 0.04 0.02 0.03 0.01 0.02 0.02 0.02 0.01 0.01 0.02 0.00 0.00 0.00 0.00 0.00 0.00 0.00 0.00 0.00 0.00 0.00 0.00 0.00 0.00 0.00 0.00 0.00 0.00 0.00 0.01 0.03 0.01 0.01 0.02 0.02 0.03 0.05 0.01 0.01 0.04 0.03 0.03 0.04 0.04 0.03 0.00 0.00 0.00 0.00 0.01 0.03 0.02 0.03 0.01 0.01 0.00 0.00 0.00 0.00 0.00 0.00 0.00 0.00 0.00 0.00 0.01 0.00 0.00 0.00 0.00 0.00 0.00 0.00 0.00 0.00 0.00 0.00 0.00 0.00 0.00 0.00 0.00
0.15 0.11 0.10 0.04 0.07 0.05 0.03 0.01 0.01 0.02 0.02 0.02 0.01 0.02 0.00 0.00 0.01 0.00 0.00 0.00 0.00 0.00 0.00 0.00 0.00 0.00 0.00 0.01 0.00 0.00 0.01 0.03 0.03 0.02 0.01 0.01 0.00 0.02 0.01 0.03 0.01 0.01 0.01 0.00 0.01 0.01 0.01 0.00 0.01 0.01 0.00 0.01 0.02 0.01 0.02 0.01 0.02 0.00 0.00 0.00 0.00 0.00 0.00 0.00 0.00 0.00 0.00 0.00 0.00 0.00 0.00 0.00 0.00 0.00 0.00 0.00 0.00 0.00 0.00 0.00 0.00 0.00 0.00 0.00 0.00
0.10 0.14 0.10 0.05 0.07 0.01 0.01 0.01 0.01 0.01 0.01 0.02 0.02 0.01 0.01 0.01 0.01 0.01 0.00 0.00 0.00 0.00 0.00 0.00 0.00 0.00 0.01 0.00 0.00 0.01 0.01 0.04 0.02 0.03 0.00 0.00 0.01 0.03 0.02 0.02 0.03 0.02 0.00 0.00 0.00 0.00 0.01 0.01 0.00 0.00 0.01 0.02 0.01 0.00 0.00 0.00 0.00 0.00 0.00 0.00 0.00 0.00 0.00 0.00 0.00 0.00 0.00 0.00 0.00 0.00 0.00 0.00 0.00 0.00 0.01 0.00 0.00 0.00 0.00 0.00 0.00 0.00 0.00 0.00 0.00
0.13 0.08 0.12 0.08 0.06 0.02 0.02 0.01 0.01 0.01 0.02 0.03 0.02 0.01 0.01 0.01 0.01 0.01 0.00 0.00 0.00 0.00 0.00 0.00 0.00 0.00 0.00 0.00 0.00 0.02 0.02 0.02 0.05 0.07 0.03 0.10 0.03 0.02 0.03 0.08 0.06 0.01 0.00 0.00 0.00 0.00 0.00 0.00 0.01 0.01 0.01 0.00 0.00 0.00 0.00 0.00 0.00 0.00 0.00 0.00 0.00 0.00 0.00 0.00 0.00 0.00 0.00 0.00 0.00 0.00 0.00 0.00 0.00 0.00 0.00 0.00 0.00 0.00 0.00 0.00 0.00 0.00 0.00 0.00 0.00
0.11 0.12 0.09 0.06 0.20 0.08 0.09 0.10 0.01 0.01 0.03 0.03 0.01 0.01 0.01 0.02 0.01 0.00 0.01 0.00 0.01 0.00 0.00 0.00 0.01 0.01 0.01 0.01 0.01 0.01 0.01 0.04 0.02 0.07 0.06 0.03 0.08 0.01 0.04 0.05 0.05 0.04 0.00 0.00 0.00 0.00 0.00 0.00 0.01 0.01 0.03 0.01 0.00 0.00 0.00 0.00 0.00 0.00 0.00 0.00 0.00 0.00 0.00 0.00 0.00 0.00 0.00 0.00 0.00 0.00 0.00 0.00 0.00 0.00 0.00 0.00 0.00 0.00 0.00 0.00 0.00 0.00 0.00 0.00 0.01
0.18 0.21 0.19 0.15 0.13 0.12 0.28 0.23 0.12 0.14 0.46 0.03 0.02 0.02 0.01 0.01 0.01 0.00 0.01 0.00 0.00 0.01 0.00 0.01 0.03 0.02 0.01 0.03 0.04 0.02 0.01 0.02 0.03 0.09 0.02 0.03 0.06 0.05 0.02 0.03 0.02 0.00 0.00 0.00 0.00 0.01 0.01 0.01 0.01 0.01 0.02 0.00 0.00 0.00 0.00 0.00 0.00 0.00 0.00 0.00 0.00 0.00 0.00 0.00 0.00 0.00 0.00 0.00 0.00 0.00 0.00 0.00 0.00 0.00 0.00 0.00 0.01 0.01 0.01 0.01 0.01 0.01 0.00 0.00 0.00
0.20 0.21 0.25 0.26 0.17 0.18 0.23 0.41 0.26 0.22 0.16 0.02 0.04 0.02 0.00 0.00 0.01 0.00 0.00 0.00 0.01 0.01 0.01 0.01 0.03 0.02 0.01 0.01 0.01 0.01 0.02 0.01 0.01 0.05 0.01 0.03 0.07 0.06 0.01 0.01 0.02 0.01 0.02 0.01 0.02 0.06 0.02 0.02 0.01 0.00 0.01 0.01 0.00 0.00 0.00 0.00 0.00 0.00 0.00 0.00 0.00 0.00 0.00 0.00 0.00 0.00 0.00 0.00 0.00 0.00 0.00 0.00 0.00 0.00 0.00 0.01 0.00 0.00 0.00 0.00 0.00 0.00 0.00 0.00 0.00
0.50 0.56 0.31 0.25 0.27 0.31 0.21 0.40 0.29 0.20 0.03 0.05 0.04 0.01 0.02 0.00 0.00 0.00 0.00 0.00 0.01 0.00 0.01 0.01 0.02 0.02 0.00 0.00 0.01 0.00 0.01 0.02 0.01 0.05 0.01 0.01 0.06 0.05 0.01 0.02 0.02 0.02 0.01 0.01 0.01 0.02 0.04 0.03 0.01 0.00 0.00 0.00 0.00 0.00 0.00 0.00 0.00 0.00 0.00 0.00 0.00 0.00 0.00 0.00 0.01 0.00 0.00 0.00 0.00 0.00 0.00 0.00 0.00 0.00 0.00 0.00 0.00 0.00 0.00 0.00 0.00 0.00 0.00 0.00 0.00
0.19 0.21 0.23 0.28 0.25 0.29 0.27 0.33 0.37 0.64 0.08 0.04 0.03 0.02 0.01 0.00 0.01 0.02 0.00 0.01 0.00 0.00 0.00 0.01 0.01 0.00 0.01 0.00 0.00 0.01 0.01 0.01 0.01 0.04 0.01 0.01 0.05 0.05 0.07 0.04 0.03 0.03 0.00 0.00 0.00 0.00 0.00 0.02 0.03 0.00 0.00 0.00 0.00 0.00 0.00 0.00 0.00 0.00 0.00 0.00 0.00 0.00 0.00 0.00 0.00 0.00 0.00 0.00 0.00 0.00 0.00 0.00 0.00 0.00 0.00 0.00 0.00 0.00 0.00 0.00 0.00 0.00 0.00 0.00 0.00
0.44 0.53 0.33 0.32 0.46 0.28 0.39 0.42 0.51 0.41 0.39 0.12 0.04 0.06 0.05 0.05 0.02 0.04 0.05 0.03 0.03 0.01 0.01 0.00 0.03 0.01 0.00 0.00 0.00 0.00 0.00 0.01 0.01 0.02 0.01 0.03 0.07 0.04 0.05 0.02 0.02 0.02 0.00 0.00 0.00 0.01 0.01 0.01 0.04 0.07 0.00 0.00 0.00 0.00 0.00 0.00 0.00 0.00 0.00 0.00 0.00 0.00 0.00 0.00 0.00 0.00 0.00 0.00 0.00 0.00 0.00 0.00 0.00 0.00 0.00 0.00 0.00 0.00 0.00 0.00 0.00 0.00 0.00 0.00 0.00
0.46 0.58 0.45 0.61 0.42 0.26 0.25 0.29 0.43 0.56 0.57 0.49 0.13 0.09 0.04 0.04 0.02 0.04 0.00 0.01 0.02 0.02 0.01 0.02 0.04 0.01 0.01 0.00 0.00 0.00 0.00 0.00 0.00 0.00 0.00 0.01 0.01 0.02 0.01 0.02 0.05 0.00 0.00 0.00 0.00 0.00 0.01 0.02 0.02 0.04 0.00 0.00 0.00 0.00 0.00 0.00 0.00 0.00 0.00 0.00 0.00 0.00 0.00 0.00 0.00 0.00 0.00 0.00 0.00 0.00 0.00 0.00 0.00 0.00 0.00 0.00 0.00 0.00 0.00 0.00 0.00 0.00 0.00 0.00 0.00
0.42 0.50 0.49 0.35 0.25 0.34 0.37 0.40 0.63 0.68 1.19 1.20 0.78 0.30 0.08 0.08 0.02 0.06 0.02 0.03 0.05 0.05 0.03 0.01 0.03 0.13 0.02 0.01 0.01 0.01 0.01 0.01 0.00 0.00 0.00 0.00 0.01 0.00 0.00 0.01 0.01 0.00 0.00 0.00 0.00 0.00 0.00 0.00 0.00 0.01 0.00 0.00 0.00 0.00 0.00 0.00 0.00 0.00 0.00 0.00 0.00 0.00 0.00 0.00 0.00 0.00 0.00 0.00 0.00 0.00 0.00 0.00 0.00 0.00 0.00 0.00 0.00 0.00 0.00 0.00 0.00 0.00 0.00 0.00 0.00
0.47 0.98 0.57 0.44 0.40 0.49 0.55 0.69 0.59 0.76 1.23 0.97 1.04 1.12 0.68 0.53 0.25 0.05 0.11 0.06 0.09 0.05 0.06 0.03 0.04 0.03 0.02 0.01 0.01 0.05 0.04 0.03 0.05 0.06 0.05 0.00 0.00 0.02 0.00 0.00 0.01 0.00 0.00 0.00 0.00 0.00 0.00 0.00 0.00 0.00 0.00 0.00 0.00 0.00 0.00 0.00 0.00 0.00 0.00 0.00 0.00 0.00 0.00 0.00 0.00 0.00 0.00 0.00 0.00 0.00 0.00 0.00 0.00 0.00 0.00 0.00 0.00 0.00 0.00 0.00 0.00 0.00 0.00 0.00 0.00
0.34 0.24 0.42 0.40 0.44 0.84 0.97 1.09 1.17 1.80 0.67 0.86 1.06 0.75 0.50 0.83 0.69 0.39 0.16 0.06 0.05 0.05 0.04 0.02 0.23 0.07 0.06 0.05 0.05 0.11 0.19 0.14 0.06 0.15 0.07 0.14 0.01 0.00 0.00 0.00 0.00 0.00 0.01 0.01 0.00 0.00 0.01 0.00 0.00 0.00 0.00 0.00 0.00 0.00 0.00 0.00 0.00 0.00 0.00 0.00 0.00 0.00 0.00 0.00 0.00 0.00 0.00 0.00 0.00 0.00 0.00 0.00 0.00 0.00 0.00 0.00 0.00 0.00 0.00 0.00 0.00 0.00 0.00 0.01 0.01
0.28 0.19 0.22 0.31 0.60 1.13 1.95 0.89 1.41 0.77 0.70 0.85 0.84 0.40 0.98 0.68 0.82 0.40 0.53 0.37 0.24 0.13 0.05 0.11 0.23 0.38 0.22 0.06 0.27 0.45 0.38 0.10 0.17 0.18 0.13 0.05 0.06 0.00 0.00 0.00 0.00 0.00 0.00 0.00 0.01 0.01 0.00 0.00 0.00 0.00 0.00 0.00 0.00 0.00 0.00 0.00 0.00 0.00 0.00 0.00 0.00 0.01 0.00 0.00 0.00 0.00 0.00 0.01 0.00 0.00 0.00 0.00 0.00 0.00 0.00 0.00 0.00 0.00 0.00 0.00 0.00 0.00 0.00 0.00 0.00
0.24 0.58 0.33 0.46 0.56 0.78 1.12 1.34 0.89 0.53 0.91 0.64 1.01 0.99 0.89 0.90 0.82 0.95 0.62 0.26 0.29 0.11 0.09 0.22 0.26 0.38 0.33 0.42 0.52 0.54 0.55 0.30 0.45 0.12 0.14 0.02 0.08 0.01 0.00 0.00 0.00 0.00 0.00 0.00 0.01 0.00 0.00 0.01 0.02 0.00 0.00 0.00 0.00 0.00 0.00 0.00 0.00 0.00 0.00 0.00 0.01 0.01 0.01 0.02 0.00 0.00 0.01 0.00 0.00 0.00 0.00 0.00 0.00 0.00 0.00 0.00 0.00 0.00 0.00 0.00 0.00 0.00 0.00 0.00 0.00
0.48 0.45 0.63 0.45 0.28 0.20 0.85 1.14 0.70 0.44 0.72 0.89 1.20 0.65 0.86 1.24 0.58 0.87 0.58 0.72 0.33 0.13 0.17 0.28 0.46 0.55 0.77 0.75 0.89 0.59 0.65 0.48 0.35 0.14 0.10 0.16 0.11 0.01 0.00 0.00 0.00 0.00 0.00 0.02 0.02 0.00 0.01 0.02 0.02 0.01 0.00 0.00 0.00 0.00 0.00 0.00 0.00 0.00 0.01 0.01 0.01 0.01 0.01 0.00 0.00 0.00 0.00 0.00 0.00 0.00 0.00 0.00 0.00 0.00 0.00 0.00 0.00 0.00 0.00 0.00 0.00 0.00 0.00 0.00 0.00
1.11 1.29 0.70 0.42 0.38 0.74 0.62 0.70 0.48 0.56 0.40 0.87 0.89 0.58 0.72 0.66 1.26 0.68 0.67 0.47 0.59 0.53 0.43 0.49 0.77 0.74 0.55 0.98 0.83 0.72 0.77 0.45 0.33 0.17 0.13 0.15 0.16 0.13 0.22 0.08 0.09 0.11 0.01 0.07 0.18 0.49 0.11 0.14 0.03 0.00 0.01 0.00 0.00 0.00 0.00 0.01 0.00 0.00 0.01 0.01 0.02 0.02 0.02 0.00 0.00 0.01 0.00 0.01 0.00 0.00 0.00 0.00 0.00 0.00 0.00 0.00 0.00 0.00 0.00 0.00 0.00 0.00 0.00 0.00 0.00
0.34 0.44 0.51 0.31 0.31 0.21 0.23 0.54 0.50 0.50 0.25 0.43 0.54 0.71 0.71 0.74 0.70 0.92 0.86 0.70 0.69 0.68 0.51 0.63 0.70 0.60 0.68 1.16 0.88 1.15 0.80 0.65 0.62 0.49 0.40 0.35 0.36 0.29 0.23 0.38 0.10 0.07 0.05 0.07 0.19 0.45 0.22 0.18 0.05 0.04 0.01 0.00 0.00 0.00 0.00 0.00 0.00 0.00 0.00 0.02 0.01 0.01 0.00 0.00 0.01 0.01 0.03 0.01 0.00 0.00 0.00 0.00 0.00 0.00 0.00 0.00 0.00 0.00 0.00 0.00 0.00 0.00 0.00 0.00 0.00
0.54 0.45 0.20 0.27 0.28 0.46 0.35 0.39 0.97 0.58 0.55 0.46 0.72 0.69 0.71 0.57 0.77 0.86 0.75 0.62 1.27 0.63 0.39 0.70 0.69 0.35 0.65 0.82 1.08 1.03 1.14 0.70 0.95 0.56 0.34 0.20 0.51 0.44 0.43 0.42 0.32 0.38 0.14 0.26 0.40 0.14 0.08 0.20 0.14 0.03 0.02 0.00 0.01 0.00 0.00 0.00 0.01 0.01 0.00 0.02 0.02 0.02 0.01 0.03 0.01 0.03 0.02 0.05 0.00 0.00 0.00 0.00 0.00 0.00 0.00 0.00 0.00 0.00 0.00 0.00 0.00 0.00 0.00 0.00 0.00
0.35 0.22 0.37 0.18 0.28 0.38 0.34 0.55 0.41 0.36 0.30 0.25 0.59 0.29 0.43 0.79 0.54 0.61 0.80 0.87 0.74 0.69 0.86 0.42 0.45 0.47 0.75 0.64 0.71 0.86 0.62 0.59 0.58 0.32 0.26 0.26 0.77 0.59 0.68 0.91 0.98 0.62 0.35 0.74 0.68 0.19 0.14 0.14 0.09 0.01 0.01 0.01 0.00 0.01 0.01 0.00 0.00 0.01 0.01 0.01 0.00 0.01 0.00 0.02 0.01 0.01 0.02 0.04 0.01 0.00 0.00 0.00 0.00 0.00 0.00 0.00 0.00 0.00 0.00 0.00 0.00 0.00 0.00 0.00 0.01
0.46 0.18 0.17 0.15 0.20 0.18 0.49 0.50 0.28 0.32 0.30 0.31 0.27 0.52 0.52 0.74 0.64 0.60 0.38 0.60 0.88 0.84 0.55 0.45 0.46 0.62 0.46 0.67 0.45 0.68 0.65 0.82 0.62 0.64 0.20 0.31 0.75 0.34 0.51 0.72 0.77 0.51 0.47 0.44 0.52 0.61 0.45 0.25 0.07 0.05 0.01 0.01 0.02 0.02 0.01 0.02 0.02 0.01 0.01 0.01 0.01 0.02 0.02 0.12 0.08 0.02 0.04 0.05 0.02 0.01 0.00 0.00 0.00 0.00 0.00 0.00 0.00 0.00 0.00 0.00 0.00 0.00 0.00 0.00 0.00
0.23 0.32 0.13 0.20 0.14 0.17 0.18 0.19 0.22 0.23 0.21 0.11 0.32 0.36 0.47 0.37 0.37 0.52 0.47 0.73 0.67 0.62 0.44 0.24 0.23 0.66 0.63 0.65 0.94 0.67 0.47 0.60 0.45 0.32 0.15 0.31 0.41 0.23 0.23 0.41 0.49 0.50 0.35 0.30 1.01 0.69 0.37 0.16 0.15 0.05 0.02 0.01 0.02 0.00 0.01 0.02 0.02 0.02 0.03 0.03 0.02 0.10 0.08 0.19 0.04 0.04 0.04 0.04 0.02 0.02 0.00 0.00 0.00 0.00 0.00 0.00 0.00 0.00 0.00 0.00 0.00 0.00 0.00 0.00 0.00
0.11 0.09 0.14 0.23 0.17 0.31 0.24 0.30 0.24 0.08 0.27 0.10 0.26 0.29 0.15 0.30 0.23 0.35 0.58 0.45 0.74 0.49 0.40 0.37 0.61 0.82 0.99 0.77 0.48 0.46 0.59 0.60 0.53 0.32 0.22 0.20 0.49 0.47 0.35 0.30 0.36 0.37 0.49 0.55 0.53 0.52 0.41 0.32 0.26 0.06 0.03 0.02 0.02 0.01 0.01 0.02 0.02 0.03 0.05 0.02 0.01 0.12 0.03 0.07 0.13 0.03 0.03 0.07 0.03 0.03 0.02 0.00 0.00 0.00 0.00 0.00 0.00 0.00 0.00 0.00 0.00 0.00 0.00 0.00 0.00
0.22 0.39 0.26 0.25 0.21 0.26 0.23 0.08 0.25 0.11 0.13 0.23 0.21 0.24 0.20 0.24 0.17 0.52 0.44 0.46 0.30 0.68 0.45 0.50 0.63 0.39 0.52 0.31 0.24 0.55 0.63 0.60 0.62 0.57 0.43 0.33 0.58 0.65 0.36 0.29 0.35 0.43 0.47 0.83 0.74 0.39 0.35 0.22 0.19 0.05 0.08 0.17 0.13 0.01 0.02 0.03 0.02 0.04 0.05 0.04 0.02 0.08 0.09 0.20 0.12 0.29 0.39 0.03 0.02 0.05 0.05 0.01 0.00 0.00 0.00 0.00 0.00 0.00 0.00 0.00 0.00 0.00 0.00 0.00 0.00
0.39 0.43 0.10 0.40 0.14 0.31 0.19 0.09 0.34 0.29 0.11 0.18 0.25 0.17 0.17 0.30 0.39 0.42 0.26 0.10 0.26 0.33 0.48 0.51 0.28 0.36 0.72 0.29 0.54 1.16 1.05 0.75 0.42 0.37 0.38 0.38 0.28 0.45 0.35 0.47 0.33 0.59 0.51 0.46 0.30 0.28 0.24 0.07 0.04 0.04 0.20 0.24 0.08 0.03 0.02 0.03 0.01 0.01 0.04 0.05 0.02 0.03 0.21 0.48 0.26 0.74 0.72 0.06 0.06 0.11 0.09 0.04 0.10 0.00 0.00 0.00 0.00 0.00 0.00 0.00 0.00 0.00 0.00 0.00 0.00
0.40 0.30 0.36 0.44 0.22 0.28 0.22 0.12 0.25 0.55 0.34 0.19 0.16 0.17 0.29 0.39 0.29 0.34 0.12 0.15 0.18 0.33 0.34 0.32 0.23 0.30 0.49 0.36 0.51 1.20 0.91 0.56 0.87 0.95 0.53 0.58 0.46 0.44 0.61 0.41 0.40 0.73 0.64 0.40 0.68 0.32 0.20 0.27 0.07 0.05 0.23 0.18 0.25 0.03 0.02 0.05 0.17 0.06 0.03 0.10 0.28 0.08 0.02 0.10 0.03 0.27 0.38 0.39 0.30 0.13 0.09 0.06 0.08 0.10 0.03 0.00 0.00 0.00 0.00 0.00 0.00 0.00 0.00 0.00 0.00
0.13 0.22 0.14 0.12 0.16 0.21 0.26 0.17 0.16 0.58 0.25 0.16 0.07 0.41 0.38 0.09 0.19 0.41 0.18 0.14 0.20 0.22 0.19 0.33 0.38 0.25 0.15 0.45 0.58 0.93 0.57 0.87 0.64 0.35 0.56 0.21 0.22 0.50 0.74 0.52 0.59 0.52 0.83 0.73 0.47 0.45 0.44 0.31 0.17 0.19 0.19 0.49 0.41 0.24 0.10 0.28 0.18 0.29 0.20 0.23 0.05 0.01 0.12 0.47 0.17 0.04 0.04 0.07 0.12 0.19 0.11 0.03 0.02 0.09 0.11 0.09 0.00 0.00 0.00 0.00 0.00 0.00 0.00 0.00 0.00
0.11 0.07 0.16 0.19 0.17 0.14 0.17 0.17 0.28 0.36 0.26 0.11 0.06 0.39 0.32 0.10 0.12 0.24 0.15 0.25 0.24 0.09 0.11 0.25 0.26 0.30 0.24 0.37 0.27 0.22 0.56 0.40 0.45 0.85 0.40 0.20 0.24 0.42 0.66 0.70 0.32 0.49 0.86 0.73 0.43 0.68 0.53 0.78 0.66 0.39 0.13 0.58 0.46 0.46 0.32 0.43 0.29 0.22 0.48 0.36 0.10 0.02 0.13 0.12 0.08 0.27 0.11 0.08 0.06 0.22 0.11 0.14 0.15 0.09 0.07 0.15 0.16 0.05 0.00 0.00 0.00 0.00 0.00 0.00 0.01
0.07 0.10 0.18 0.27 0.25 0.26 0.18 0.70 0.40 0.25 0.19 0.30 0.13 0.14 0.43 0.20 0.30 0.38 0.12 0.15 0.28 0.18 0.08 0.06 0.09 0.12 0.11 0.17 0.17 0.26 0.15 0.26 0.37 0.43 0.17 0.24 0.14 0.19 0.49 0.83 0.55 0.37 0.47 0.45 0.50 0.41 0.72 0.48 0.45 0.43 0.53 0.53 0.66 0.51 0.77 0.87 0.23 0.61 0.60 0.73 0.49 0.19 0.17 0.21 0.13 0.30 0.52 0.32 0.36 0.38 0.07 0.10 0.16 0.07 0.23 0.12 0.11 0.14 0.03 0.00 0.00 0.00 0.00 0.00 0.00
0.01 0.07 0.23 0.34 0.16 0.18 0.58 0.80 0.94 0.19 0.17 0.13 0.12 0.36 0.46 0.33 0.43 0.15 0.05 0.10 0.04 0.06 0.05 0.03 0.07 0.07 0.06 0.08 0.11 0.15 0.25 0.21 0.12 0.31 0.46 0.34 0.16 0.17 0.35 1.49 0.91 0.44 0.34 0.35 0.45 0.39 0.69 0.49 0.43 0.45 0.53 0.60 0.47 0.41 0.58 0.64 0.61 0.61 0.86 0.96 1.18 0.46 0.57 0.46 0.39 0.17 0.24 0.25 0.50 0.41 0.25 0.14 0.10 0.13 0.18 0.14 0.22 0.15 0.21 0.13 0.00 0.00 0.00 0.00 0.00
0.04 0.10 0.12 0.11 0.17 0.30 0.53 0.89 0.29 0.18 0.22 0.18 0.11 0.10 0.20 0.17 0.07 0.03 0.02 0.01 0.01 0.01 0.01 0.01 0.02 0.06 0.03 0.06 0.06 0.08 0.06 0.17 0.07 0.07 0.10 0.11 0.27 0.27 0.34 0.45 0.61 0.50 0.55 0.64 1.07 0.53 0.58 0.42 0.36 0.31 0.39 0.43 0.17 0.44 0.30 0.63 0.58 0.76 0.71 0.39 0.92 0.77 0.47 0.36 0.11 0.21 0.49 0.40 0.45 0.68 0.28 0.32 0.41 0.41 0.18 0.15 0.06 0.12 0.14 0.13 0.18 0.13 0.09 0.00 0.00
0.07 0.09 0.13 0.10 0.16 0.29 0.26 0.26 0.37 0.18 0.25 0.25 0.11 0.11 0.07 0.08 0.02 0.01 0.00 0.00 0.01 0.00 0.00 0.01 0.01 0.02 0.03 0.03 0.04 0.05 0.03 0.03 0.04 0.04 0.07 0.14 0.20 0.30 0.25 0.22 0.78 0.83 0.96 0.66 0.56 0.55 0.71 0.69 0.29 0.30 0.43 0.35 0.25 0.49 0.34 0.35 0.40 0.52 1.00 0.26 0.38 0.46 0.72 0.29 0.20 0.24 0.11 0.18 0.32 0.34 0.18 0.19 0.43 0.54 0.27 0.46 0.12 0.27 0.16 0.12 0.08 0.15 0.06 0.08 0.00
0.09 0.12 0.09 0.11 0.18 0.30 0.06 0.08 0.15 0.14 0.23 0.15 0.13 0.06 0.03 0.01 0.01 0.01 0.00 0.00 0.00 0.00 0.00 0.00 0.00 0.01 0.01 0.01 0.01 0.02 0.04 0.04 0.06 0.23 0.18 0.05 0.07 0.15 0.20 0.31 0.29 0.25 0.61 0.73 0.80 0.73 1.22 0.77 0.75 0.61 0.47 0.35 0.35 0.27 0.52 0.33 0.30 0.43 0.46 0.23 0.17 0.26 0.51 0.31 0.24 0.09 0.12 0.11 0.16 0.13 0.08 0.10 0.21 0.32 0.47 0.55 0.52 0.43 0.40 0.42 0.23 0.20 0.16 0.15 0.06
0.14 0.07 0.06 0.08 0.09 0.09 0.15 0.13 0.08 0.09 0.11 0.13 0.06 0.04 0.01 0.00 0.01 0.00 0.00 0.00 0.00 0.00 0.00 0.00 0.00 0.00 0.00 0.00 0.00 0.01 0.01 0.03 0.04 0.04 0.07 0.09 0.05 0.08 0.12 0.18 0.24 0.14 0.21 0.27 0.25 0.64 0.64 0.38 0.55 0.59 0.45 0.42 0.44 0.29 0.35 0.11 0.32 0.34 0.29 0.19 0.15 0.16 0.32 0.14 0.08 0.15 0.21 0.13 0.18 0.37 0.22 0.07 0.11 0.14 0.10 0.34 0.39 0.40 0.43 0.43 0.35 0.37 0.16 0.17 0.32
0.13 0.12 0.10 0.13 0.14 0.11 0.23 0.48 0.21 0.14 0.13 0.07 0.12 0.06 0.01 0.02 0.06 0.01 0.00 0.00 0.01 0.00 0.00 0.00 0.00 0.00 0.00 0.00 0.00 0.00 0.01 0.01 0.01 0.04 0.02 0.05 0.07 0.03 0.09 0.09 0.13 0.20 0.14 0.18 0.20 0.40 0.46 0.41 0.28 0.23 0.45 0.42 0.44 0.62 0.65 0.23 0.65 0.91 0.64 0.39 0.21 0.32 0.40 0.26 0.09 0.09 0.18 0.34 0.21 0.30 0.18 0.11 0.22 0.22 0.04 0.14 0.14 0.19 0.26 0.41 0.51 0.52 0.34 0.24 0.24
0.07 0.12 0.12 0.05 0.12 0.10 0.10 0.21 0.29 0.18 0.16 0.20 0.01 0.04 0.00 0.07 0.04 0.00 0.00 0.00 0.00 0.00 0.00 0.00 0.00 0.00 0.00 0.00 0.00 0.00 0.00 0.01 0.00 0.00 0.01 0.04 0.08 0.09 0.04 0.03 0.06 0.07 0.09 0.12 0.08 0.08 0.16 0.19 0.19 0.22 0.59 0.54 0.12 0.33 0.95 1.61 0.68 0.64 0.30 0.48 0.55 0.33 0.22 0.56 0.44 0.24 0.16 0.11 0.41 0.25 0.21 0.45 0.38 0.16 0.11 0.12 0.27 0.19 0.31 0.26 0.53 0.28 0.25 0.28 0.19
0.13 0.14 0.31 0.41 0.11 0.17 0.13 0.12 0.24 0.23 0.20 0.10 0.11 0.05 0.04 0.12 0.21 0.00 0.00 0.00 0.00 0.00 0.00 0.00 0.00 0.00 0.00 0.00 0.00 0.00 0.00 0.00 0.00 0.00 0.01 0.00 0.01 0.02 0.06 0.06 0.07 0.05 0.04 0.07 0.05 0.05 0.08 0.10 0.26 0.40 0.10 0.20 0.46 1.32 1.02 0.99 1.40 0.50 0.30 0.32 0.46 0.39 0.42 0.35 0.21 0.33 0.23 0.31 0.29 0.09 0.20 0.29 0.13 0.13 0.19 0.31 0.14 0.15 0.20 0.51 0.47 0.22 0.19 0.17 0.18
0.17 0.45 0.68 0.58 0.51 0.32 0.17 0.12 0.14 0.14 0.07 0.14 0.19 0.15 0.24 0.23 0.08 0.00 0.00 0.00 0.00 0.00 0.00 0.00 0.00 0.00 0.00 0.00 0.00 0.00 0.00 0.00 0.00 0.00 0.00 0.00 0.00 0.00 0.00 0.01 0.03 0.07 0.03 0.04 0.07 0.02 0.02 0.04 0.11 0.27 0.18 0.17 0.15 0.67 0.51 0.62 0.60 0.49 0.48 0.40 0.66 0.94 0.51 0.43 0.36 0.39 0.26 0.29 0.20 0.34 0.07 0.05 0.03 0.11 0.05 0.05 0.04 0.08 0.08 0.05 0.09 0.16 0.12 0.17 0.34
0.50 0.78 0.79 0.91 0.84 0.38 0.14 0.20 0.08 0.11 0.16 0.21 0.11 0.16 0.27 0.15 0.00 0.00 0.01 0.00 0.00 0.00 0.00 0.00 0.00 0.00 0.00 0.00 0.00 0.00 0.00 0.00 0.00 0.00 0.00 0.00 0.01 0.00 0.01 0.01 0.01 0.01 0.01 0.06 0.05 0.04 0.04 0.07 0.08 0.07 0.06 0.17 0.16 0.36 0.65 1.04 0.40 0.30 0.60 0.62 0.68 0.43 0.31 0.13 0.46 0.21 0.20 0.14 0.15 0.12 0.06 0.06 0.09 0.09 0.07 0.07 0.09 0.01 0.01 0.15 0.14 0.37 0.27 0.37 0.16
1.18 0.83 0.88 1.03 1.24 0.68 0.32 0.18 0.12 0.11 0.18 0.07 0.29 0.15 0.22 0.05 0.00 0.01 0.00 0.00 0.00 0.00 0.00 0.00 0.00 0.00 0.00 0.00 0.00 0.00 0.00 0.00 0.00 0.00 0.00 0.00 0.00 0.00 0.00 0.01 0.01 0.01 0.01 0.02 0.04 0.05 0.03 0.03 0.02 0.04 0.05 0.06 0.08 0.12 0.35 0.44 0.23 0.67 0.93 0.34 0.29 0.26 0.24 0.23 0.44 0.42 0.11 0.10 0.09 0.14 0.14 0.06 0.03 0.03 0.03 0.05 0.11 0.64 0.34 0.29 0.31 0.31 0.14 0.19 0.22
1.01 0.98 1.03 1.07 1.31 0.95 0.70 0.61 0.58 0.26 0.24 0.32 0.28 0.46 0.13 0.10 0.13 0.04 0.08 0.00 0.00 0.00 0.00 0.00 0.00 0.00 0.00 0.00 0.00 0.00 0.00 0.00 0.00 0.00 0.00 0.00 0.00 0.00 0.00 0.01 0.01 0.01 0.01 0.03 0.04 0.03 0.04 0.03 0.02 0.01 0.02 0.02 0.04 0.07 0.09 0.11 0.20 0.44 0.29 0.18 0.08 0.09 0.23 0.15 0.39 0.57 0.45 0.03 0.04 0.08 0.15 0.17 0.10 0.03 0.01 0.02 0.03 0.05 0.09 0.04 0.03 0.03 0.16 0.13 0.02
0.93 1.23 0.88 1.22 1.44 1.09 0.98 0.42 0.27 0.76 0.65 0.51 0.43 0.40 0.14 0.27 0.20 0.03 0.07 0.00 0.00 0.00 0.00 0.00 0.00 0.00 0.00 0.00 0.00 0.00 0.00 0.00 0.00 0.00 0.00 0.00 0.00 0.00 0.01 0.01 0.01 0.01 0.01 0.01 0.02 0.02 0.03 0.03 0.03 0.03 0.03 0.02 0.03 0.02 0.04 0.02 0.09 0.24 0.26 0.24 0.28 0.19 0.17 0.33 0.26 0.34 0.19 0.05 0.06 0.02 0.03 0.06 0.09 0.11 0.03 0.00 0.00 0.00 0.00 0.00 0.01 0.01 0.00 0.01 0.03
0.84 0.82 0.99 1.04 0.46 0.81 0.77 0.67 0.55 0.50 0.62 0.72 0.42 0.30 0.23 0.36 0.11 0.02 0.01 0.00 0.00 0.00 0.00 0.00 0.00 0.00 0.00 0.00 0.00 0.00 0.00 0.00 0.00 0.00 0.00 0.00 0.00 0.00 0.00 0.02 0.02 0.00 0.01 0.01 0.01 0.02 0.02 0.03 0.04 0.03 0.03 0.03 0.05 0.04 0.08 0.04 0.21 0.13 0.15 0.25 0.26 0.21 0.21 0.51 0.10 0.22 0.50 0.08 0.00 0.00 0.00 0.00 0.01 0.01 0.02 0.02 0.00 0.00 0.00 0.00 0.00 0.00 0.00 0.00 0.00